Location: Killarney
(45.9719°N, 81.5115°W)
Time: 07:11:27
(UTC-04:00)

ISS - Visible Passes

Search period start: 19 April 2026 00:00
Search period end: 29 April 2026 00:00
Orbit: 416 x 425 km, 51.6° (Epoch: 19 April)

Date Brightness Start Highest point End Pass type
(mag) Time Alt. Az. Time Alt. Az. Time Alt. Az.
19 Apr -1.2 04:51:26 10° SSE 04:53:01 13° SE 04:54:42 10° ESE visible
20 Apr -3.2 05:39:03 12° SW 05:42:06 51° SE 05:45:24 10° ENE visible
21 Apr -2.5 04:53:37 24° S 04:54:53 33° SE 04:57:57 10° ENE visible
22 Apr -1.8 04:08:06 21° SE 04:08:06 21° SE 04:10:20 10° E visible
22 Apr -3.6 05:41:04 11° WSW 05:44:15 70° NNW 05:47:38 10° ENE visible
23 Apr -3.8 04:55:29 32° SW 04:56:54 81° SSE 05:00:17 10° ENE visible
24 Apr -3.3 04:09:50 50° SE 04:09:50 50° SE 04:12:53 10° ENE visible
24 Apr -2.7 05:43:17 10° W 05:46:29 40° NNW 05:49:43 10° ENE visible
25 Apr -1.4 03:24:08 19° E 03:24:08 19° E 03:25:22 10° ENE visible
25 Apr -3.1 04:57:05 21° W 04:59:02 50° NNW 05:02:21 10° ENE visible
26 Apr -3.7 04:11:20 65° WNW 04:11:36 69° NNW 04:14:58 10° ENE visible
26 Apr -2.2 05:45:45 10° WNW 05:48:47 31° N 05:51:51 10° ENE visible
27 Apr -2.2 03:25:32 33° ENE 03:25:32 33° ENE 03:27:34 10° ENE visible
27 Apr -2.3 04:58:29 12° WNW 05:01:15 33° N 05:04:22 10° ENE visible
28 Apr -0.8 02:39:42 13° ENE 02:39:42 13° ENE 02:40:06 10° ENE visible
28 Apr -2.6 04:12:39 30° WNW 04:13:43 39° NNW 04:16:55 10° ENE visible
